Teterboro, NJ

9:49 AM EDT on September 27, 2016 (GMT -0400)
Teterboro

Weather History for KTEB - April, 2013

Change the Weather History Date:

Sunday, April 28, 2013

  Actual Average Record
Temperature  
Mean Temperature 56 °F -  
Max Temperature 69 °F 65 °F 80 °F (2003)
Min Temperature 45 °F 44 °F 37 °F (2012)
Degree Days  
Heating Degree Days 8    
Growing Degree Days 6 (Base 50)    
Moisture  
Dew Point 33 °F    
Average Humidity 44    
Maximum Humidity 66    
Minimum Humidity 25    
Precipitation  
Precipitation 0.00 in - - ()
Sea Level Pressure  
Sea Level Pressure 30.26 in    
Wind  
Wind Speed 4 mph (South)    
Max Wind Speed 14 mph    
Max Gust Speed 22 mph    
Visibility 10 miles    
Events      
Averages and records for this station are not official NWS values.
T = Trace of Precipitation, MM = Missing Value Source: NWS Daily Summary

Daily Weather History Graph

Daily Weather History Graph

Search for Another Location

Airport or City:

Trip Planner

Search our weather history database for the weather conditions in past years. The results will help you decide how hot, cold, wet, or windy it might be!

Date:

Astronomy

Apr. 28, 2013 Rise Set
Actual Time 5:58 AM EDT 7:49 PM EDT
Civil Twilight 5:28 AM EDT 8:19 PM EDT
Nautical Twilight 4:52 AM EDT 8:55 PM EDT
Astronomical Twilight 4:14 AM EDT 9:34 PM EDT
Moon 11:18 PM EDT (4/28) 8:11 AM EDT (4/28)
Length of Visible Light 14h 50m
Length of Day
13h 51m
Waning Gibbous, 89% of the Moon is Illuminated
Apr 28
Waning Gibbous
May 2
Last Quarter
May 9
New
May 18
First Quarter
May 25
Full

Hourly Weather History & Observations

Time (EDT) Temp. Dew Point Humidity Pressure Visibility Wind Dir Wind Speed Gust Speed Precip Events Conditions
12:51 AM 54.0 °F 30.0 °F 40% 30.30 in 10.0 mi South 3.5 mph - N/A   Clear
1:51 AM 51.1 °F 30.0 °F 44% 30.30 in 10.0 mi SE 3.5 mph - N/A   Clear
2:51 AM 48.0 °F 30.9 °F 52% 30.27 in 10.0 mi Calm Calm - N/A   Clear
3:51 AM 46.0 °F 32.0 °F 58% 30.27 in 10.0 mi Calm Calm - N/A   Clear
4:05 AM 48.2 °F 33.8 °F 58% 30.27 in 10.0 mi Calm Calm - N/A   Clear
4:51 AM 45.0 °F 33.1 °F 63% 30.27 in 10.0 mi Calm Calm - N/A   Clear
5:51 AM 45.0 °F 34.0 °F 65% 30.27 in 10.0 mi Calm Calm - N/A   Clear
6:51 AM 48.0 °F 37.0 °F 66% 30.28 in 10.0 mi Calm Calm - N/A   Clear
7:51 AM 52.0 °F 39.0 °F 61% 30.30 in 10.0 mi Calm Calm - N/A   Clear
8:51 AM 55.9 °F 39.0 °F 53% 30.31 in 10.0 mi SSW 4.6 mph - N/A   Clear
9:51 AM 59.0 °F 37.9 °F 46% 30.30 in 10.0 mi SW 3.5 mph - N/A   Clear
10:51 AM 63.0 °F 39.0 °F 41% 30.29 in 10.0 mi South 4.6 mph - N/A   Clear
11:51 AM 64.9 °F 37.9 °F 37% 30.28 in 10.0 mi SSW 6.9 mph - N/A   Clear
12:51 PM 68.0 °F 39.9 °F 36% 30.26 in 10.0 mi South 9.2 mph - N/A   Clear
1:51 PM 66.9 °F 39.9 °F 37% 30.25 in 10.0 mi SSE 10.4 mph 19.6 mph N/A   Clear
2:51 PM 66.0 °F 34.0 °F 30% 30.24 in 10.0 mi SSE 12.7 mph - N/A   Clear
3:51 PM 66.0 °F 28.9 °F 25% 30.23 in 10.0 mi South 11.5 mph 21.9 mph N/A   Clear
4:51 PM 63.0 °F 30.0 °F 29% 30.22 in 10.0 mi South 13.8 mph - N/A   Clear
5:51 PM 62.1 °F 28.9 °F 29% 30.21 in 10.0 mi South 13.8 mph 20.7 mph N/A   Clear
6:51 PM 60.1 °F 28.0 °F 30% 30.20 in 10.0 mi South 11.5 mph 18.4 mph N/A   Clear
7:51 PM 59.0 °F 26.1 °F 28% 30.20 in 10.0 mi SSE 10.4 mph 19.6 mph N/A   Clear
8:51 PM 57.9 °F 27.0 °F 31% 30.21 in 10.0 mi SSE 5.8 mph - N/A   Clear
9:51 PM 57.0 °F 30.0 °F 36% 30.22 in 10.0 mi SSE 6.9 mph - N/A   Clear
10:51 PM 57.0 °F 30.0 °F 36% 30.23 in 10.0 mi South 5.8 mph - N/A   Clear
11:51 PM 55.9 °F 41.0 °F 57% 30.23 in 10.0 mi South 5.8 mph - N/A   Clear